Temperature
10 11 12 12 12 13 13 13 13 13 12 12 12 13 14 13 12 13 13 12 12 11 11 10 10 9 9 10 10 10 10 10 10 9 9 9 9 9 9 9 9 9 9 8
10 11 12 12 11 11 12 12 13 12 11 11 12 12 13 13 13 13 13 13 12 11 10 10 9 9 9 9 9 9 9 9 9 9 9 9 9 9 9 9 9 8 8 8
11 11 11 10 10 11 11 12 12 12 11 11 11 13 14 13 12 12 12 12 12 11 10 9 9 9 9 9 9 9 9 9 9 9 9 9 9 8 8 8 8 8 8 8
10 10 9 10 10 11 11 11 11 11 11 12 12 14 15 14 13 12 12 11 11 11 10 9 9 9 9 9 9 9 9 8 8 8 8 8 8 8 8 8 8 8 8 7
9 9 9 10 10 11 11 10 10 11 11 11 11 11 15 13 13 13 13 12 11 10 10 9 9 9 9 9 9 9 8 8 8 8 8 8 8 8 8 7 7 7 7 7
9 9 9 10 10 10 9 10 10 10 11 11 12 12 14 14 14 14 13 12 11 10 9 9 9 8 8 8 8 8 8 8 8 8 8 8 7 7 7 7 7 7 7 7
8 9 8 9 9 9 9 10 10 10 10 12 11 11 14 14 13 13 12 11 10 9 9 8 8 8 8 8 8 8 8 8 8 8 8 7 7 7 7 7 7 7 7 7
8 9 8 8 10 9 10 11 11 12 13 13 10 11 14 12 11 10 10 10 9 9 8 8 8 8 8 8 8 8 8 7 7 7 7 7 7 7 7 7 7 7 7 7
8 8 8 8 8 9 9 10 11 11 11 12 13 12 12 12 11 11 10 9 9 8 8 7 7 7 7 7 8 7 7 7 7 7 7 7 7 7 7 7 6 6 6 7
7 6 7 7 8 7 9 9 9 10 11 13 14 13 14 12 12 11 10 10 9 8 7 7 7 7 7 7 7 7 7 7 7 7 7 7 7 7 6 6 6 6 6 6
6 6 6 7 8 8 7 8 9 10 11 13 14 14 13 12 11 11 10 9 8 7 7 7 7 7 7 7 7 7 7 7 7 7 7 6 6 6 6 6 6 6 6 6
5 6 6 7 7 7 8 8 8 9 9 10 12 13 11 11 10 10 9 8 7 7 7 7 6 6 6 6 7 7 7 7 7 6 6 6 6 6 6 6 6 6 6 6
5 5 6 6 6 5 6 6 7 8 9 10 12 13 10 10 10 9 8 7 7 6 6 6 6 6 6 6 6 6 6 6 6 6 6 6 6 6 6 5 5 5 5 5
5 4 6 7 8 6 5 6 6 7 8 9 11 12 11 10 9 9 8 7 7 6 6 6 6 6 6 6 6 6 6 6 6 6 6 6 6 5 5 5 5 5 5 5
5 5 4 5 5 6 6 6 6 6 8 9 10 10 10 10 9 8 7 6 6 6 6 5 5 5 5 6 6 6 6 6 6 6 6 6 5 5 5 5 5 5 5 5
4 4 4 4 5 5 5 6 6 7 7 8 8 9 9 8 8 7 7 6 6 6 5 5 5 5 5 5 6 6 6 6 6 5 5 5 5 5 5 5 5 5 5 5
3 3 4 5 4 5 6 6 5 6 6 7 8 9 7 7 7 7 6 6 6 5 5 5 5 5 5 6 6 6 6 6 5 5 5 5 5 5 5 5 5 5 5 5
3 3 4 4 4 5 7 6 6 6 5 6 6 7 6 6 6 6 5 5 5 5 5 5 5 5 5 5 6 6 6 5 5 5 5 5 5 5 5 4 4 4 4 4
3 3 3 4 5 7 6 4 4 5 5 5 5 6 5 4 5 6 4 4 4 4 4 4 5 5 5 5 5 5 5 5 5 5 5 5 5 5 4 4 4 4 4 4
2 3 3 4 5 6 6 4 4 5 5 5 5 5 4 4 6 6 3 3 3 3 4 4 4 4 5 5 5 5 5 5 5 5 4 4 4 4 4 4 4 4 4 4
2 2 3 3 5 6 5 3 4 5 6 4 4 4 3 4 4 4 3 3 3 3 3 3 4 4 4 4 4 4 4 4 4 4 4 4 4 4 4 4 3 3 3 3
3 3 3 3 4 5 3 3 4 5 3 3 3 3 3 3 2 2 2 2 2 2 3 3 3 3 4 4 4 4 4 4 4 3 3 4 4 4 4 3 3 3 3 2
2 3 4 4 4 3 2 3 2 2 2 2 2 2 2 2 2 2 2 2 2 2 2 2 3 3 3 3 3 3 3 3 3 3 3 3 3 3 3 3 3 2 2 2
2 1 2 2 3 2 1 1 1 2 2 2 2 2 2 1 1 1 1 1 1 1 2 2 2 2 2 3 3 2 2 3 2 2 2 2 2 2 2 2 2 2 1 1
1 1 1 2 2 1 1 1 1 1 1 1 1 1 1 1 1 1 0 0 0 1 1 2 2 2 2 2 2 2 2 2 2 2 2 2 2 2 2 1 1 1 1 1
0 1 1 3 2 2 1 0 1 1 0 0 0 0 0 1 1 0 0 0 0 0 1 1 1 1 1 1 1 1 1 1 1 1 1 1 1 1 1 1 1 1 1 1
Wind_Speed
8 9 13 15 15 7 6 8 8 6 3 7 11 13 13 11 11 12 11 10 10 10 9 7 7 6 6 5 5 5 5 4 3 3 4 4 4 4 4 4 5 5 5 5
8 14 13 9 9 9 8 9 8 4 3 5 8 14 14 13 14 13 13 12 11 10 8 7 6 6 6 6 6 5 5 5 5 4 4 4 5 5 4 4 5 5 5 5
13 5 8 11 11 11 12 12 9 6 2 4 6 10 12 10 11 12 12 12 11 10 10 8 7 7 6 6 6 5 5 5 5 5 4 3 3 4 4 4 4 5 5 5
10 7 9 12 12 12 10 8 8 7 6 4 4 6 7 8 10 11 12 11 11 10 10 9 8 7 7 7 6 6 5 5 4 4 5 5 5 5 6 5 5 5 6 6
7 8 11 12 11 11 5 4 6 7 7 6 7 7 7 6 10 11 11 10 10 9 9 9 8 8 7 6 5 5 5 5 4 5 6 6 6 6 5 5 6 5 5 5
6 5 7 7 5 8 8 6 3 3 5 7 10 10 7 7 9 8 8 8 7 7 8 8 7 7 6 5 5 5 5 5 4 5 5 6 6 6 6 6 5 5 4 4
6 6 5 5 7 8 9 8 4 5 6 8 5 8 8 5 5 6 6 6 5 5 6 6 6 7 6 6 5 5 5 5 5 5 5 6 7 7 7 6 6 5 5 4
8 8 8 7 8 9 13 11 7 6 7 5 6 9 5 3 3 4 5 4 4 4 4 5 6 6 6 6 6 6 6 6 5 6 6 6 6 5 6 6 6 6 5 5
6 5 3 4 3 7 9 10 6 3 2 4 6 6 6 4 5 4 3 3 4 4 4 4 5 6 6 6 6 6 6 6 6 6 6 5 5 6 6 6 6 5 5 5
2 3 3 3 4 3 4 6 5 6 6 7 7 8 6 6 6 4 3 2 2 2 3 3 4 4 5 5 6 6 6 6 6 5 5 4 5 5 5 5 5 5 5 5
2 3 3 5 9 9 7 7 6 5 5 6 6 4 1 4 4 2 1 1 2 2 2 2 3 3 4 4 5 5 5 5 5 5 5 5 5 5 4 5 5 5 5 4
2 2 3 6 3 4 7 8 8 6 6 5 5 3 3 2 1 0 1 1 1 2 2 2 2 2 3 3 4 4 5 5 5 5 4 4 4 4 4 5 5 5 4 4
2 2 2 3 4 4 6 7 7 4 3 6 7 5 2 1 1 1 1 1 1 1 1 1 1 2 2 3 3 4 4 5 4 4 4 4 4 4 5 5 4 4 4 3
3 3 6 8 4 5 7 10 9 8 7 9 11 9 6 4 3 2 2 1 1 1 1 1 2 2 3 3 3 4 4 4 4 4 4 4 4 4 4 4 4 4 4 3
2 3 5 6 6 6 9 13 14 13 13 11 11 11 9 7 5 4 3 2 1 1 2 2 3 3 3 3 3 4 4 4 3 4 4 4 4 3 3 3 3 3 3 3
2 3 3 5 5 6 8 11 14 14 13 13 12 12 7 5 4 4 4 3 2 3 3 3 4 4 4 4 4 4 4 4 3 4 4 3 3 3 3 3 3 3 3 2
4 4 3 4 4 4 7 9 11 9 11 10 11 8 3 5 6 6 5 4 4 4 5 4 4 4 5 5 4 4 4 4 3 3 3 3 3 2 3 3 3 3 3 2
5 4 2 2 3 7 2 1 6 7 7 7 5 4 4 5 6 6 4 3 4 5 5 5 5 5 5 5 4 3 3 3 3 2 2 2 2 2 2 2 2 3 2 1
6 4 2 3 4 6 3 1 2 6 7 7 7 5 3 3 3 4 2 3 4 4 4 4 4 4 4 3 3 1 1 1 1 2 2 2 2 2 2 2 2 2 1 1
2 3 3 3 4 5 2 1 2 3 4 3 6 6 3 1 3 3 3 5 4 3 3 3 4 4 3 3 2 0 0 1 1 2 2 2 2 2 2 2 1 1 0 0
3 2 4 5 5 5 2 2 1 4 3 2 4 5 5 4 3 3 3 3 3 3 3 3 3 3 4 3 1 1 1 1 1 1 0 0 0 0 1 0 0 1 1 1
5 4 5 4 6 5 1 2 3 3 4 1 0 2 3 2 2 2 2 2 3 3 3 3 3 3 4 3 1 1 1 1 1 1 1 1 1 1 1 2 1 1 2 2
5 4 4 5 4 3 2 2 4 4 2 2 1 1 1 1 1 2 2 2 3 3 3 2 2 3 4 3 3 2 2 2 1 2 2 2 2 2 2 2 2 2 2 2
4 3 3 4 5 4 3 4 4 4 3 3 2 1 0 1 1 2 2 2 2 3 2 2 2 3 4 4 3 3 3 2 2 3 3 3 3 3 3 2 2 2 2 1
4 3 3 5 5 4 4 4 4 4 3 3 3 2 1 0 1 1 2 2 2 2 2 2 2 2 3 3 3 4 3 2 3 3 3 3 3 3 3 3 2 2 1 1
3 4 4 4 4 4 4 4 3 2 3 2 2 2 2 1 0 1 1 1 1 2 2 2 2 3 3 3 3 4 3 3 3 2 2 2 2 2 2 2 3 5 4 4
Wind_Direction
179 199 209 205 209 236 217 215 225 229 213 221 237 249 250 241 235 235 231 226 223 223 219 213 214 214 216 221 226 229 234 234 240 243 245 246 252 261 260 260 263 261 259 256
183 219 219 208 206 213 216 221 232 242 219 235 257 262 257 245 236 232 230 227 224 223 216 211 214 213 219 223 227 229 231 236 237 240 244 245 255 257 263 265 266 266 263 257
208 203 191 192 196 207 221 227 230 231 243 247 269 267 242 233 229 229 231 230 226 221 220 214 214 217 223 226 229 233 233 237 239 241 240 250 254 260 262 269 270 266 266 261
220 213 188 195 207 209 228 228 224 218 222 238 232 271 244 223 224 223 224 222 224 221 220 217 216 219 224 227 228 232 232 234 236 238 235 239 248 256 266 269 266 269 263 258
211 194 193 205 212 206 205 175 200 219 236 254 230 249 256 220 230 225 219 216 219 221 219 218 217 221 224 223 222 227 232 234 236 239 239 240 250 259 265 265 266 268 266 260
234 217 212 210 194 189 154 140 147 201 228 245 229 228 254 220 223 218 209 211 219 222 221 221 220 221 222 221 220 225 229 234 238 242 241 241 250 258 264 266 268 269 270 267
222 216 202 186 164 171 184 177 183 200 215 235 193 223 249 235 222 226 222 220 224 225 223 221 222 223 222 222 224 227 230 238 243 246 248 249 252 255 256 261 262 265 269 272
204 215 198 194 199 191 197 204 209 215 225 217 192 231 246 236 233 236 241 236 227 224 223 225 225 224 223 223 226 229 233 239 243 247 252 253 256 257 258 258 260 259 263 266
205 212 193 200 206 185 186 211 233 238 257 250 226 241 264 224 214 218 226 222 224 229 230 228 224 226 226 225 229 232 233 237 241 246 253 257 260 262 261 259 258 259 262 265
224 212 206 185 176 202 214 179 181 206 216 235 235 237 229 201 206 206 215 228 236 239 238 234 227 227 230 232 234 234 232 235 240 245 251 259 257 259 260 258 257 261 266 264
235 192 197 194 206 198 180 189 204 210 245 238 238 227 191 188 180 197 219 241 248 245 244 240 238 235 235 238 237 236 238 240 242 246 250 256 257 257 257 258 260 261 263 264
212 201 221 231 245 253 218 206 197 208 216 230 250 243 86 140 140 214 284 301 287 266 263 260 252 239 236 242 240 237 239 240 243 245 245 250 256 256 254 257 260 261 261 261
182 171 190 212 202 199 217 216 219 229 220 218 228 226 121 104 33 340 318 325 315 286 299 300 280 260 256 253 245 241 242 246 246 243 241 245 252 254 253 255 256 258 256 257
224 214 228 230 254 208 229 227 221 216 223 230 238 244 247 261 274 301 312 319 312 299 297 305 292 281 276 266 253 247 248 246 242 239 238 245 254 255 251 251 251 255 253 253
229 236 245 270 277 248 239 226 218 223 229 234 242 243 251 256 263 269 278 285 279 300 306 302 287 282 281 278 268 256 252 245 237 234 239 245 247 251 251 253 249 253 257 256
237 225 244 269 267 255 250 234 222 227 235 241 253 257 266 269 265 259 264 268 274 294 300 301 295 293 284 276 268 260 251 245 236 232 235 242 244 242 248 249 242 245 253 255
202 190 211 244 276 266 249 224 212 227 229 226 240 254 264 258 247 249 250 258 278 290 293 291 288 284 283 278 264 252 244 237 229 230 234 237 243 244 248 246 244 243 245 250
206 210 213 210 222 229 238 98 201 217 223 217 245 271 258 260 263 260 243 261 286 294 293 292 290 291 291 291 283 257 234 225 219 223 234 235 231 245 256 248 252 251 246 243
215 200 199 205 235 259 261 205 206 216 238 223 242 257 277 321 282 243 262 295 290 291 299 303 302 303 303 304 300 259 219 203 207 233 237 237 224 226 238 247 255 250 255 265
163 197 204 219 236 238 292 335 281 223 244 219 231 238 236 234 250 262 320 309 303 308 315 317 322 326 328 325 309 230 168 191 241 255 257 257 227 209 219 232 257 293 265 237
186 203 218 234 246 258 330 8 150 206 290 306 224 220 209 225 268 304 304 303 312 330 337 337 339 344 338 329 322 70 59 328 309 298 270 340 332 239 216 210 132 79 60 63
205 205 210 218 232 247 82 133 210 305 337 330 271 221 223 251 322 340 335 327 336 347 351 354 356 359 357 1 23 61 26 346 6 62 67 50 42 41 49 73 75 89 84 73
226 228 227 219 241 316 214 260 312 330 333 338 341 308 223 241 300 328 334 339 346 353 355 360 10 10 11 16 25 41 15 14 43 70 68 62 55 51 53 72 82 83 81 82
251 260 243 251 270 280 271 318 332 333 330 335 348 346 236 255 298 320 332 340 349 356 358 2 15 20 16 15 20 30 35 45 68 70 64 59 60 56 50 50 64 81 83 84
260 231 253 263 287 297 285 299 318 327 343 359 5 358 324 211 294 312 315 328 342 347 354 4 11 15 12 16 25 29 35 58 76 74 66 60 57 57 55 55 53 59 49 50
243 235 237 260 273 271 280 292 302 303 314 323 341 346 347 345 331 326 329 335 342 351 1 10 18 22 21 29 33 31 33 53 74 76 66 64 64 60 56 58 51 46 44 36
Height
1470 1470 1466 1464 1467 1467 1466 1467 1467 1469 1475 1476 1471 1468 1467 1469 1470 1470 1470 1471 1472 1473 1475 1476 1477 1478 1479 1479 1479 1479 1479 1479 1479 1478 1478 1477 1477 1476 1476 1474 1473 1472 1471 1471
1468 1464 1462 1466 1469 1470 1470 1469 1468 1471 1475 1474 1469 1465 1462 1462 1463 1464 1465 1466 1468 1470 1471 1472 1473 1474 1474 1475 1475 1475 1475 1475 1475 1474 1474 1474 1473 1473 1472 1471 1470 1468 1467 1466
1457 1459 1463 1466 1468 1469 1468 1466 1465 1468 1473 1473 1471 1459 1454 1454 1458 1459 1460 1461 1463 1465 1466 1467 1468 1469 1470 1471 1471 1471 1471 1471 1471 1470 1470 1470 1470 1469 1468 1467 1465 1464 1463 1462
1458 1460 1463 1463 1464 1464 1464 1466 1468 1470 1469 1464 1468 1455 1445 1447 1451 1453 1454 1456 1458 1460 1461 1463 1464 1465 1465 1466 1467 1467 1467 1467 1467 1467 1466 1466 1465 1464 1464 1463 1461 1460 1459 1458
1455 1458 1459 1459 1460 1462 1463 1468 1469 1469 1467 1467 1464 1463 1442 1445 1445 1445 1448 1451 1453 1455 1457 1458 1459 1460 1461 1462 1463 1463 1464 1464 1463 1463 1463 1462 1462 1461 1460 1459 1458 1456 1455 1454
1456 1458 1458 1457 1460 1463 1467 1469 1470 1469 1467 1466 1454 1455 1437 1437 1437 1439 1443 1447 1449 1451 1453 1454 1456 1457 1458 1458 1459 1459 1460 1460 1459 1459 1459 1458 1458 1457 1456 1455 1453 1452 1451 1450
1453 1455 1457 1458 1459 1464 1463 1463 1465 1465 1464 1451 1453 1451 1435 1433 1436 1438 1441 1444 1446 1447 1449 1450 1451 1452 1453 1454 1454 1455 1456 1455 1456 1456 1455 1455 1454 1453 1452 1451 1449 1448 1447 1446
1448 1448 1452 1454 1452 1453 1455 1454 1452 1449 1442 1438 1455 1445 1432 1434 1437 1439 1440 1442 1443 1444 1445 1446 1447 1448 1449 1450 1450 1451 1451 1451 1451 1451 1451 1451 1450 1449 1448 1447 1445 1444 1443 1442
1444 1445 1451 1453 1453 1452 1453 1452 1450 1449 1449 1442 1434 1435 1433 1433 1435 1437 1438 1440 1441 1441 1442 1443 1443 1444 1445 1446 1446 1447 1447 1447 1447 1447 1447 1446 1446 1445 1443 1442 1442 1441 1440 1438
1447 1450 1451 1453 1454 1454 1452 1450 1454 1450 1443 1433 1426 1428 1423 1428 1430 1433 1436 1437 1438 1439 1440 1440 1441 1441 1442 1443 1443 1444 1444 1444 1444 1444 1443 1442 1442 1441 1440 1439 1438 1437 1436 1435
1450 1450 1452 1451 1448 1446 1452 1453 1449 1445 1440 1430 1423 1420 1422 1425 1430 1432 1434 1436 1437 1437 1438 1438 1438 1439 1439 1440 1440 1440 1440 1440 1440 1440 1439 1439 1438 1437 1436 1435 1434 1434 1433 1432
1449 1448 1448 1447 1448 1449 1447 1445 1446 1443 1444 1439 1427 1424 1426 1428 1431 1433 1435 1436 1436 1436 1436 1436 1436 1436 1437 1436 1436 1436 1437 1437 1437 1436 1436 1435 1434 1433 1433 1432 1431 1431 1430 1429
1448 1449 1447 1443 1449 1451 1449 1448 1447 1446 1442 1436 1428 1425 1428 1430 1431 1433 1434 1435 1435 1435 1435 1435 1435 1435 1434 1434 1433 1433 1434 1434 1434 1433 1433 1432 1431 1430 1429 1428 1428 1428 1427 1426
1446 1446 1441 1435 1431 1440 1445 1446 1447 1445 1439 1433 1426 1422 1425 1429 1431 1433 1434 1434 1434 1434 1434 1433 1433 1433 1432 1431 1431 1431 1431 1431 1431 1430 1429 1429 1428 1427 1426 1426 1425 1425 1424 1423
1445 1443 1443 1441 1440 1438 1437 1437 1440 1440 1433 1429 1423 1425 1425 1428 1431 1433 1433 1434 1434 1433 1432 1432 1431 1430 1430 1429 1429 1428 1428 1428 1428 1427 1426 1426 1425 1425 1424 1423 1423 1422 1422 1421
1444 1444 1442 1441 1439 1437 1435 1433 1433 1434 1432 1429 1428 1426 1427 1429 1431 1432 1432 1432 1432 1432 1431 1430 1429 1428 1427 1426 1426 1425 1425 1425 1425 1424 1424 1424 1423 1422 1421 1421 1420 1420 1419 1418
1443 1444 1440 1435 1438 1434 1428 1428 1430 1430 1428 1428 1427 1425 1429 1429 1429 1429 1430 1430 1430 1430 1429 1429 1427 1426 1425 1424 1423 1423 1422 1422 1422 1422 1422 1421 1420 1420 1419 1419 1418 1417 1417 1416
1441 1441 1439 1437 1437 1431 1421 1425 1425 1426 1427 1428 1427 1427 1428 1428 1428 1428 1428 1428 1428 1428 1427 1426 1425 1424 1423 1422 1421 1420 1420 1420 1419 1419 1419 1419 1418 1418 1417 1417 1416 1416 1415 1414
1438 1439 1438 1434 1427 1418 1421 1426 1427 1426 1424 1426 1426 1426 1427 1428 1426 1425 1426 1426 1426 1425 1425 1424 1423 1422 1420 1419 1418 1418 1417 1417 1417 1417 1416 1416 1416 1416 1415 1414 1414 1414 1413 1413
1438 1437 1437 1434 1426 1420 1418 1424 1424 1424 1420 1421 1423 1424 1425 1426 1424 1422 1423 1423 1423 1423 1422 1421 1420 1419 1418 1417 1416 1416 1415 1415 1414 1414 1414 1414 1414 1414 1413 1413 1413 1412 1412 1411
1437 1437 1435 1431 1425 1417 1422 1424 1424 1423 1418 1420 1420 1421 1423 1423 1424 1424 1422 1422 1421 1421 1420 1419 1418 1417 1416 1415 1415 1414 1413 1413 1412 1412 1412 1412 1412 1412 1412 1411 1411 1411 1410 1410
1430 1430 1431 1429 1425 1422 1424 1424 1424 1420 1420 1419 1419 1420 1421 1421 1422 1421 1421 1420 1420 1419 1418 1417 1417 1415 1415 1414 1413 1412 1411 1411 1411 1411 1411 1411 1411 1410 1410 1410 1410 1410 1410 1409
1429 1427 1425 1425 1423 1423 1423 1423 1422 1421 1420 1419 1419 1419 1420 1420 1420 1420 1420 1419 1418 1418 1417 1416 1415 1414 1413 1413 1412 1411 1411 1410 1410 1410 1409 1409 1409 1409 1409 1409 1408 1408 1408 1408
1428 1429 1427 1425 1422 1423 1423 1422 1422 1421 1420 1420 1419 1419 1418 1419 1418 1418 1418 1418 1417 1417 1416 1415 1415 1413 1413 1412 1412 1411 1411 1410 1409 1409 1409 1409 1408 1408 1408 1408 1408 1408 1408 1407
1425 1427 1425 1423 1422 1422 1421 1421 1421 1420 1419 1419 1418 1418 1418 1418 1418 1417 1417 1417 1416 1416 1415 1415 1414 1413 1412 1412 1411 1411 1410 1410 1410 1409 1409 1409 1409 1408 1408 1408 1407 1407 1407 1407
1425 1425 1423 1419 1420 1420 1420 1420 1420 1419 1418 1418 1417 1417 1417 1417 1417 1416 1416 1416 1415 1415 1414 1414 1414 1413 1412 1412 1411 1411 1410 1410 1410 1409 1409 1409 1409 1409 1408 1407 1407 1408 1408 1408